ZHANGHENG 1-01 (CSES-1)

Last updated on Thu Oct 30 2025 00:03:36 GMT+0000 (Coordinated Universal Time)

1 43194U 18015C 25302.52610484 .00013400 00000+0 60610-3 0 9991 2 43194 97.6645 98.9353 0016429 7.7637 352.3849 15.20927223429584
UTC large
Height (km)
Speed (km/s)
/
Latitude / Longitude
Inclination (degrees)
Orbital Period (minutes)
Azimuth
Elevation
Range (km)
Doppler Factor

Next 0 passes for location: London (51.5072 / 0.1276)

Sorry there are no passes over London.